Time,TemperatureF,DewpointF,PressureIn,WindDirection,WindDirectionDegrees,WindSpeedMPH,WindSpeedGustMPH,Humidity,HourlyPrecipIn,Conditions,Clouds,dailyrainin,SoftwareType,DateUTC
2013-03-09 00:02:00,35.0,-99.9,29.67,ESE,103,1.0,3.0,-999,-99.99,,,-99.99,,2013-03-09 09:02:00,
2013-03-09 00:12:00,34.0,-99.9,29.67,SE,130,3.0,9.0,-999,-99.99,,,-99.99,,2013-03-09 09:12:00,
2013-03-09 00:21:00,34.0,-99.9,29.67,SE,131,2.0,5.0,-999,-99.99,,,-99.99,,2013-03-09 09:21:00,
2013-03-09 00:32:00,35.0,-99.9,29.67,SSE,163,4.0,5.0,-999,-99.99,,,-99.99,,2013-03-09 09:32:00,
2013-03-09 00:42:00,34.0,-99.9,29.68,West,268,2.0,3.0,-999,-99.99,,,-99.99,,2013-03-09 09:42:00,
2013-03-09 00:52:00,35.0,-99.9,29.68,SSE,165,4.0,6.0,-999,-99.99,,,-99.99,,2013-03-09 09:52:00,
2013-03-09 01:01:00,35.0,-99.9,29.68,South,185,2.0,4.0,-999,-99.99,,,-99.99,,2013-03-09 10:01:00,
2013-03-09 01:11:00,36.0,-99.9,29.69,SE,129,2.0,10.0,-999,-99.99,,,-99.99,,2013-03-09 10:11:00,
2013-03-09 01:22:00,36.0,-99.9,29.69,SE,136,4.0,8.0,-999,-99.99,,,-99.99,,2013-03-09 10:22:00,
2013-03-09 01:32:00,35.0,-99.9,29.69,SE,127,4.0,7.0,-999,-99.99,,,-99.99,,2013-03-09 10:32:00,
2013-03-09 01:42:00,35.0,-99.9,29.70,ESE,111,4.0,6.0,-999,-99.99,,,-99.99,,2013-03-09 10:42:00,
2013-03-09 01:52:00,35.0,-99.9,29.70,SE,124,4.0,7.0,-999,-99.99,,,-99.99,,2013-03-09 10:52:00,
2013-03-09 02:01:00,35.0,-99.9,29.70,SE,143,5.0,7.0,-999,-99.99,,,-99.99,,2013-03-09 11:01:00,
2013-03-09 02:11:00,36.0,-99.9,29.70,SSE,160,6.0,8.0,-999,-99.99,,,-99.99,,2013-03-09 11:11:00,
2013-03-09 02:22:00,36.0,-99.9,29.71,SE,124,4.0,8.0,-999,-99.99,,,-99.99,,2013-03-09 11:22:00,
2013-03-09 02:32:00,36.0,-99.9,29.71,SE,127,4.0,6.0,-999,-99.99,,,-99.99,,2013-03-09 11:32:00,
2013-03-09 02:42:00,36.0,-99.9,29.72,SE,143,5.0,7.0,-999,-99.99,,,-99.99,,2013-03-09 11:42:00,
2013-03-09 02:52:00,36.0,-99.9,29.72,SSE,152,6.0,9.0,-999,-99.99,,,-99.99,,2013-03-09 11:52:00,
2013-03-09 03:02:00,36.0,-99.9,29.72,SSE,150,7.0,9.0,-999,-99.99,,,-99.99,,2013-03-09 12:02:00,
2013-03-09 03:12:00,35.0,-99.9,29.73,SE,142,5.0,8.0,-999,-99.99,,,-99.99,,2013-03-09 12:12:00,
2013-03-09 03:22:00,35.0,-99.9,29.73,ESE,121,2.0,3.0,-999,-99.99,,,-99.99,,2013-03-09 12:22:00,
2013-03-09 03:32:00,35.0,-99.9,29.73,ESE,122,2.0,3.0,-999,-99.99,,,-99.99,,2013-03-09 12:32:00,
2013-03-09 03:42:00,35.0,-99.9,29.73,East,85,2.0,3.0,-999,-99.99,,,-99.99,,2013-03-09 12:42:00,
2013-03-09 03:52:00,35.0,-99.9,29.73,SE,143,0.0,2.0,-999,-99.99,,,-99.99,,2013-03-09 12:52:00,
2013-03-09 04:02:00,35.0,-99.9,29.74,WSW,242,1.0,2.0,-999,-99.99,,,-99.99,,2013-03-09 13:02:00,
2013-03-09 04:11:00,34.0,-99.9,29.74,NNE,24,-999.0,1.0,-999,-99.99,,,-99.99,,2013-03-09 13:11:00,
2013-03-09 04:22:00,35.0,-99.9,29.74,ENE,70,2.0,3.0,-999,-99.99,,,-99.99,,2013-03-09 13:22:00,
2013-03-09 04:32:00,34.0,-99.9,29.74,NNE,31,0.0,3.0,-999,-99.99,,,-99.99,,2013-03-09 13:32:00,
2013-03-09 04:42:00,34.0,-99.9,29.75,NE,53,-999.0,1.0,-999,-99.99,,,-99.99,,2013-03-09 13:42:00,
2013-03-09 04:52:00,34.0,-99.9,29.75,East,96,0.0,0.0,-999,-99.99,,,-99.99,,2013-03-09 13:52:00,
2013-03-09 05:01:00,34.0,-99.9,29.75,NW,319,-999.0,1.0,-999,-99.99,,,-99.99,,2013-03-09 14:01:00,
2013-03-09 05:11:00,34.0,-99.9,29.75,North,-999,-999.0,-999.0,-999,-99.99,,,-99.99,,2013-03-09 14:11:00,
2013-03-09 05:22:00,34.0,-99.9,29.76,SSE,165,2.0,2.0,-999,-99.99,,,-99.99,,2013-03-09 14:22:00,
2013-03-09 05:32:00,34.0,-99.9,29.76,South,171,2.0,2.0,-999,-99.99,,,-99.99,,2013-03-09 14:32:00,
2013-03-09 05:42:00,34.0,-99.9,29.76,SE,145,3.0,4.0,-999,-99.99,,,-99.99,,2013-03-09 14:42:00,
2013-03-09 05:52:00,33.0,-99.9,29.77,SSE,153,1.0,3.0,-999,-99.99,,,-99.99,,2013-03-09 14:52:00,
2013-03-09 06:02:00,33.0,-99.9,29.77,ESE,119,2.0,3.0,-999,-99.99,,,-99.99,,2013-03-09 15:02:00,
2013-03-09 06:12:00,33.0,-99.9,29.78,South,189,1.0,2.0,-999,-99.99,,,-99.99,,2013-03-09 15:12:00,
2013-03-09 06:22:00,33.0,-99.9,29.78,SSE,154,4.0,4.0,-999,-99.99,,,-99.99,,2013-03-09 15:22:00,
2013-03-09 06:32:00,33.0,-99.9,29.78,SSE,158,2.0,4.0,-999,-99.99,,,-99.99,,2013-03-09 15:32:00,
2013-03-09 06:42:00,33.0,-99.9,29.78,SSE,148,3.0,3.0,-999,-99.99,,,-99.99,,2013-03-09 15:42:00,
2013-03-09 06:52:00,33.0,-99.9,29.78,SSE,151,1.0,2.0,-999,-99.99,,,-99.99,,2013-03-09 15:52:00,
2013-03-09 07:02:00,33.0,-99.9,29.79,SE,139,2.0,3.0,-999,-99.99,,,-99.99,,2013-03-09 16:02:00,
2013-03-09 07:12:00,33.0,-99.9,29.79,SSE,155,0.0,3.0,-999,-99.99,,,-99.99,,2013-03-09 16:12:00,
2013-03-09 07:22:00,33.0,-99.9,29.80,South,175,1.0,2.0,-999,-99.99,,,-99.99,,2013-03-09 16:22:00,
2013-03-09 07:32:00,34.0,-99.9,29.80,ESE,111,1.0,1.0,-999,-99.99,,,-99.99,,2013-03-09 16:32:00,
2013-03-09 07:42:00,34.0,-99.9,29.80,ESE,118,2.0,4.0,-999,-99.99,,,-99.99,,2013-03-09 16:42:00,
2013-03-09 07:52:00,33.0,-99.9,29.81,SW,225,3.0,4.0,-999,-99.99,,,-99.99,,2013-03-09 16:52:00,
2013-03-09 08:01:00,34.0,-99.9,29.81,South,185,0.0,2.0,-999,-99.99,,,-99.99,,2013-03-09 17:01:00,
2013-03-09 08:11:00,33.0,-99.9,29.81,SSE,168,-999.0,2.0,-999,-99.99,,,-99.99,,2013-03-09 17:11:00,
2013-03-09 08:22:00,33.0,-99.9,29.82,NNE,25,2.0,2.0,-999,-99.99,,,-99.99,,2013-03-09 17:22:00,
2013-03-09 08:32:00,34.0,-99.9,29.82,NNE,15,-999.0,2.0,-999,-99.99,,,-99.99,,2013-03-09 17:32:00,
2013-03-09 08:42:00,33.0,-99.9,29.83,SSE,161,1.0,2.0,-999,-99.99,,,-99.99,,2013-03-09 17:42:00,
2013-03-09 08:52:00,34.0,-99.9,29.83,NE,56,-999.0,2.0,-999,-99.99,,,-99.99,,2013-03-09 17:52:00,
2013-03-09 09:02:00,34.0,-99.9,29.83,South,186,1.0,2.0,-999,-99.99,,,-99.99,,2013-03-09 18:02:00,
2013-03-09 09:11:00,34.0,-99.9,29.84,SE,127,2.0,2.0,-999,-99.99,,,-99.99,,2013-03-09 18:11:00,
2013-03-09 09:22:00,33.0,-99.9,29.85,SE,126,3.0,6.0,-999,-99.99,,,-99.99,,2013-03-09 18:22:00,
2013-03-09 09:32:00,33.0,-99.9,29.85,SSW,201,2.0,2.0,-999,-99.99,,,-99.99,,2013-03-09 18:32:00,
2013-03-09 09:42:00,34.0,-99.9,29.85,NNE,12,3.0,4.0,-999,-99.99,,,-99.99,,2013-03-09 18:42:00,
2013-03-09 09:52:00,35.0,-99.9,29.86,SE,126,0.0,2.0,-999,-99.99,,,-99.99,,2013-03-09 18:52:00,
2013-03-09 10:02:00,35.0,-99.9,29.86,NNE,12,0.0,3.0,-999,-99.99,,,-99.99,,2013-03-09 19:02:00,
2013-03-09 10:12:00,36.0,-99.9,29.87,SW,220,0.0,3.0,-999,-99.99,,,-99.99,,2013-03-09 19:12:00,
2013-03-09 10:22:00,36.0,-99.9,29.87,WNW,288,2.0,6.0,-999,-99.99,,,-99.99,,2013-03-09 19:22:00,
2013-03-09 10:32:00,36.0,-99.9,29.88,West,263,11.0,15.0,-999,-99.99,,,-99.99,,2013-03-09 19:32:00,
2013-03-09 10:42:00,37.0,-99.9,29.88,WSW,243,4.0,11.0,-999,-99.99,,,-99.99,,2013-03-09 19:42:00,
2013-03-09 10:52:00,37.0,-99.9,29.88,WNW,299,4.0,7.0,-999,-99.99,,,-99.99,,2013-03-09 19:52:00,
2013-03-09 11:02:00,37.0,-99.9,29.88,West,270,7.0,14.0,-999,-99.99,,,-99.99,,2013-03-09 20:02:00,
2013-03-09 11:11:00,36.0,-99.9,29.89,West,264,13.0,17.0,-999,-99.99,,,-99.99,,2013-03-09 20:11:00,
2013-03-09 11:22:00,36.0,-99.9,29.90,WSW,257,15.0,19.0,-999,-99.99,,,-99.99,,2013-03-09 20:22:00,
2013-03-09 11:32:00,36.0,-99.9,29.90,West,266,10.0,17.0,-999,-99.99,,,-99.99,,2013-03-09 20:32:00,
2013-03-09 11:42:00,35.0,-99.9,29.91,West,262,16.0,19.0,-999,-99.99,,,-99.99,,2013-03-09 20:42:00,
2013-03-09 11:52:00,35.0,-99.9,29.91,West,267,16.0,20.0,-999,-99.99,,,-99.99,,2013-03-09 20:52:00,
2013-03-09 12:02:00,36.0,-99.9,29.91,West,272,13.0,19.0,-999,-99.99,,,-99.99,,2013-03-09 21:02:00,
2013-03-09 12:12:00,35.0,-99.9,29.91,West,262,18.0,22.0,-999,-99.99,,,-99.99,,2013-03-09 21:12:00,
2013-03-09 12:22:00,36.0,-99.9,29.92,West,268,15.0,21.0,-999,-99.99,,,-99.99,,2013-03-09 21:22:00,
2013-03-09 12:32:00,36.0,-99.9,29.92,West,268,18.0,21.0,-999,-99.99,,,-99.99,,2013-03-09 21:32:00,
2013-03-09 12:42:00,36.0,-99.9,29.93,West,266,17.0,21.0,-999,-99.99,,,-99.99,,2013-03-09 21:42:00,
2013-03-09 12:52:00,36.0,-99.9,29.93,West,262,16.0,22.0,-999,-99.99,,,-99.99,,2013-03-09 21:52:00,
2013-03-09 13:01:00,36.0,-99.9,29.93,WSW,248,16.0,20.0,-999,-99.99,,,-99.99,,2013-03-09 22:01:00,
2013-03-09 13:11:00,36.0,-99.9,29.93,West,273,18.0,21.0,-999,-99.99,,,-99.99,,2013-03-09 22:11:00,
2013-03-09 13:22:00,36.0,-99.9,29.94,West,269,18.0,23.0,-999,-99.99,,,-99.99,,2013-03-09 22:22:00,
2013-03-09 13:32:00,36.0,-99.9,29.94,West,273,15.0,21.0,-999,-99.99,,,-99.99,,2013-03-09 22:32:00,
2013-03-09 13:42:00,35.0,-99.9,29.94,West,265,19.0,25.0,-999,-99.99,,,-99.99,,2013-03-09 22:42:00,
2013-03-09 13:52:00,35.0,-99.9,29.95,West,262,16.0,26.0,-999,-99.99,,,-99.99,,2013-03-09 22:52:00,
2013-03-09 14:01:00,35.0,-99.9,29.96,West,268,17.0,23.0,-999,-99.99,,,-99.99,,2013-03-09 23:01:00,
2013-03-09 14:11:00,35.0,-99.9,29.96,West,263,14.0,21.0,-999,-99.99,,,-99.99,,2013-03-09 23:11:00,
2013-03-09 14:22:00,35.0,-99.9,29.96,West,262,18.0,20.0,-999,-99.99,,,-99.99,,2013-03-09 23:22:00,
2013-03-09 14:32:00,36.0,-99.9,29.96,West,261,11.0,21.0,-999,-99.99,,,-99.99,,2013-03-09 23:32:00,
2013-03-09 14:42:00,35.0,-99.9,29.97,West,259,16.0,22.0,-999,-99.99,,,-99.99,,2013-03-09 23:42:00,
2013-03-09 14:52:00,35.0,-99.9,29.97,West,267,17.0,26.0,-999,-99.99,,,-99.99,,2013-03-09 23:52:00,
2013-03-09 15:02:00,35.0,-99.9,29.97,West,264,19.0,24.0,-999,-99.99,,,-99.99,,2013-03-10 00:02:00,
2013-03-09 15:12:00,35.0,-99.9,29.98,West,267,18.0,23.0,-999,-99.99,,,-99.99,,2013-03-10 00:12:00,
2013-03-09 15:22:00,36.0,-99.9,29.98,West,265,15.0,23.0,-999,-99.99,,,-99.99,,2013-03-10 00:22:00,
2013-03-09 15:32:00,36.0,-99.9,29.98,West,261,18.0,23.0,-999,-99.99,,,-99.99,,2013-03-10 00:32:00,
2013-03-09 15:43:00,36.0,-99.9,29.99,West,266,17.0,24.0,-999,-99.99,,,-99.99,,2013-03-10 00:43:00,
2013-03-09 15:52:00,36.0,-99.9,29.99,West,265,18.0,23.0,-999,-99.99,,,-99.99,,2013-03-10 00:52:00,
2013-03-09 16:01:00,36.0,-99.9,30.00,West,273,14.0,22.0,-999,-99.99,,,-99.99,,2013-03-10 01:01:00,
2013-03-09 16:11:00,36.0,-99.9,30.01,WNW,282,13.0,21.0,-999,-99.99,,,-99.99,,2013-03-10 01:11:00,
2013-03-09 16:22:00,36.0,-99.9,30.01,West,281,15.0,25.0,-999,-99.99,,,-99.99,,2013-03-10 01:22:00,
2013-03-09 16:32:00,36.0,-99.9,30.01,West,271,13.0,21.0,-999,-99.99,,,-99.99,,2013-03-10 01:32:00,
2013-03-09 16:42:00,35.0,-99.9,30.02,West,267,11.0,20.0,-999,-99.99,,,-99.99,,2013-03-10 01:42:00,
2013-03-09 16:52:00,36.0,-99.9,30.03,WSW,251,9.0,16.0,-999,-99.99,,,-99.99,,2013-03-10 01:52:00,
2013-03-09 17:01:00,36.0,-99.9,30.03,North,6,3.0,12.0,-999,-99.99,,,-99.99,,2013-03-10 02:01:00,
2013-03-09 17:11:00,36.0,-99.9,30.03,ESE,122,8.0,16.0,-999,-99.99,,,-99.99,,2013-03-10 02:11:00,
2013-03-09 17:22:00,36.0,-99.9,30.04,SE,139,11.0,22.0,-999,-99.99,,,-99.99,,2013-03-10 02:22:00,
2013-03-09 17:32:00,36.0,-99.9,30.04,SE,131,11.0,18.0,-999,-99.99,,,-99.99,,2013-03-10 02:32:00,
2013-03-09 17:42:00,36.0,-99.9,30.05,SSE,149,12.0,15.0,-999,-99.99,,,-99.99,,2013-03-10 02:42:00,
2013-03-09 17:52:00,35.0,-99.9,30.06,SSE,155,17.0,22.0,-999,-99.99,,,-99.99,,2013-03-10 02:52:00,
2013-03-09 18:02:00,36.0,-99.9,30.06,SE,129,11.0,15.0,-999,-99.99,,,-99.99,,2013-03-10 03:02:00,
2013-03-09 18:12:00,36.0,-99.9,30.06,SSE,158,13.0,16.0,-999,-99.99,,,-99.99,,2013-03-10 03:12:00,
2013-03-09 18:22:00,36.0,-99.9,30.07,SSE,159,7.0,14.0,-999,-99.99,,,-99.99,,2013-03-10 03:22:00,
2013-03-09 18:32:00,35.0,-99.9,30.07,South,171,11.0,19.0,-999,-99.99,,,-99.99,,2013-03-10 03:32:00,
2013-03-09 18:42:00,35.0,-99.9,30.07,SSE,167,10.0,13.0,-999,-99.99,,,-99.99,,2013-03-10 03:42:00,
2013-03-09 18:52:00,35.0,-99.9,30.08,SSE,167,9.0,13.0,-999,-99.99,,,-99.99,,2013-03-10 03:52:00,
2013-03-09 19:01:00,35.0,-99.9,30.08,SE,138,6.0,21.0,-999,-99.99,,,-99.99,,2013-03-10 04:01:00,
2013-03-09 19:11:00,35.0,-99.9,30.09,SSE,163,11.0,19.0,-999,-99.99,,,-99.99,,2013-03-10 04:11:00,
2013-03-09 19:22:00,35.0,-99.9,30.09,SSE,159,12.0,15.0,-999,-99.99,,,-99.99,,2013-03-10 04:22:00,
2013-03-09 19:32:00,35.0,-99.9,30.10,SSE,153,8.0,17.0,-999,-99.99,,,-99.99,,2013-03-10 04:32:00,
2013-03-09 19:42:00,35.0,-99.9,30.10,SE,144,9.0,10.0,-999,-99.99,,,-99.99,,2013-03-10 04:42:00,
2013-03-09 19:52:00,35.0,-99.9,30.11,NNW,342,1.0,10.0,-999,-99.99,,,-99.99,,2013-03-10 04:52:00,
2013-03-09 20:02:00,35.0,-99.9,30.11,ESE,117,4.0,6.0,-999,-99.99,,,-99.99,,2013-03-10 05:02:00,
2013-03-09 20:11:00,36.0,-99.9,30.12,East,86,4.0,11.0,-999,-99.99,,,-99.99,,2013-03-10 05:11:00,
2013-03-09 20:22:00,35.0,-99.9,30.13,East,95,6.0,9.0,-999,-99.99,,,-99.99,,2013-03-10 05:22:00,
2013-03-09 20:32:00,34.0,-99.9,30.13,East,97,3.0,6.0,-999,-99.99,,,-99.99,,2013-03-10 05:32:00,
2013-03-09 20:42:00,34.0,-99.9,30.14,East,89,2.0,7.0,-999,-99.99,,,-99.99,,2013-03-10 05:42:00,
2013-03-09 20:52:00,34.0,-99.9,30.15,North,8,2.0,4.0,-999,-99.99,,,-99.99,,2013-03-10 05:52:00,
2013-03-09 21:02:00,34.0,-99.9,30.15,WNW,301,1.0,3.0,-999,-99.99,,,-99.99,,2013-03-10 06:02:00,
2013-03-09 21:11:00,34.0,-99.9,30.15,North,358,2.0,3.0,-999,-99.99,,,-99.99,,2013-03-10 06:11:00,
2013-03-09 21:22:00,34.0,-99.9,30.16,West,277,7.0,14.0,-999,-99.99,,,-99.99,,2013-03-10 06:22:00,
2013-03-09 21:32:00,34.0,-99.9,30.16,WSW,237,4.0,7.0,-999,-99.99,,,-99.99,,2013-03-10 06:32:00,
2013-03-09 21:42:00,35.0,-99.9,30.16,South,169,2.0,9.0,-999,-99.99,,,-99.99,,2013-03-10 06:42:00,
2013-03-09 21:52:00,34.0,-99.9,30.17,SW,228,6.0,9.0,-999,-99.99,,,-99.99,,2013-03-10 06:52:00,
2013-03-09 22:02:00,34.0,-99.9,30.17,WNW,288,4.0,8.0,-999,-99.99,,,-99.99,,2013-03-10 07:02:00,
2013-03-09 22:11:00,35.0,-99.9,30.17,SSW,206,5.0,8.0,-999,-99.99,,,-99.99,,2013-03-10 07:11:00,
2013-03-09 22:21:00,34.0,-99.9,30.18,SSW,208,6.0,8.0,-999,-99.99,,,-99.99,,2013-03-10 07:21:00,
2013-03-09 22:32:00,34.0,-99.9,30.18,South,182,10.0,12.0,-999,-99.99,,,-99.99,,2013-03-10 07:32:00,
2013-03-09 22:42:00,33.0,-99.9,30.19,SSW,212,6.0,9.0,-999,-99.99,,,-99.99,,2013-03-10 07:42:00,
2013-03-09 22:52:00,33.0,-99.9,30.19,SSW,194,9.0,12.0,-999,-99.99,,,-99.99,,2013-03-10 07:52:00,
2013-03-09 23:02:00,33.0,-99.9,30.19,SSW,203,8.0,11.0,-999,-99.99,,,-99.99,,2013-03-10 08:02:00,
2013-03-09 23:12:00,34.0,-99.9,30.20,SW,222,6.0,10.0,-999,-99.99,,,-99.99,,2013-03-10 08:12:00,
2013-03-09 23:21:00,33.0,-99.9,30.19,ESE,118,1.0,5.0,-999,-99.99,,,-99.99,,2013-03-10 08:21:00,
2013-03-09 23:32:00,33.0,-99.9,30.20,South,191,7.0,9.0,-999,-99.99,,,-99.99,,2013-03-10 08:32:00,
2013-03-09 23:42:00,33.0,-99.9,30.20,South,178,4.0,8.0,-999,-99.99,,,-99.99,,2013-03-10 08:42:00,
2013-03-09 23:52:00,32.0,-99.9,30.20,ESE,119,3.0,4.0,-999,-99.99,,,-99.99,,2013-03-10 08:52:00,